Voltar ao catálogo

STARLINK-32812

AtivoComunicaçõesVLEO
NORAD 63038·PAYLOAD·🇺🇸 United States

Lançado Feb 18, 2025 de Cape Canaveral Space Force Station

Loading…

Próximas Passagens (próximas 24 horas)

TLE

AtualizadoSource: CelesTrak SupGP

Época: Sep 15, 2026, 02:38 UTC

1 63038C 25034K   26258.11020833 -.00000574  00000+0 -18462-4 0  2585
2 63038  53.1573  98.0283 0001234  87.1385 198.7022 15.31694349    13

Acompanhe STARLINK-32812 em tempo real com AllMySat

Download on the App Store